Location: Chateh
(58.6667°N, 118.6000°W)
Time: 07:27:02
(UTC+00:00)

Gurwin Techsat 1B - Pass Details

Date: 10 December 2023
Orbit: 810 x 813 km, 98.9° (Epoch: 04 March)

Event Time Altitude Azimuth Distance (km) Brightness Sun altitude
Rises 14:40:19 0° 19° (NNE) 3,352 11.8 -12.9°
Reaches altitude 10° 14:44:10 10° 351° (N) 2,417 10.8 -12.4°
Maximum altitude 14:46:12 12° 328° (NNW) 2,257 10.4 -12.2°
Enters shadow 14:46:33 12° 324° (NW) 2,261 10.4 -12.1°
